Weather History for KELP - February, 2011

Change the Weather History Date:

Thursday, February 3, 2011

  Actual Average Record
Temperature  
Mean Temperature 10 °F 48 °F  
Max Temperature 18 °F 61 °F 76 °F (1890)
Min Temperature 1 °F 35 °F 1 °F (2011)
Degree Days  
Heating Degree Days 55 17  
Month to date heating degree days 145 53  
Since 1 July heating degree days 1567 1738  
Cooling Degree Days 0 0  
Month to date cooling degree days 0 0  
Year to date cooling degree days 0 0  
Moisture  
Dew Point -4 °F    
Average Humidity 57    
Maximum Humidity 66    
Minimum Humidity 47    
Precipitation  
Precipitation 0.00 in 0.01 in 0.78 in (2010)
Month to date precipitation 0.11 0.05  
Year to date precipitation 0.11 0.45  
Snow  
Snow 0.00 in - - ()
Month to date snowfall 1.5  
Since 1 July snowfall 2.0  
Snow Depth 0.00 in    
Sea Level Pressure  
Sea Level Pressure 30.46 in    
Wind  
Wind Speed 10 mph (NNW)    
Max Wind Speed 16 mph    
Max Gust Speed 20 mph    
Visibility 10 miles    
Events      
T = Trace of Precipitation, MM = Missing Value Source: NWS Daily Summary

Daily Weather History Graph

Daily Weather History Graph

Search for Another Location

Airport or City:

Trip Planner

Search our weather history database for the weather conditions in past years. The results will help you decide how hot, cold, wet, or windy it might be!

Date:

Astronomy

Feb. 03, 2011 Rise Set
Actual Time 6:57 AM MST 5:41 PM MST
Civil Twilight 6:32 AM MST 6:06 PM MST
Nautical Twilight 6:02 AM MST 6:36 PM MST
Astronomical Twilight 5:34 AM MST 7:04 PM MST
Moon 7:04 AM MST (2/3) 6:32 PM MST (2/3)
Length of Visible Light 11h 34m
Length of Day
10h 43m
New Moon, 0% of the Moon is Illuminated
Feb 3
New Moon
Feb 11
First Quarter
Feb 18
Full
Feb 24
Last Quarter
Mar 4
New

Hourly Weather History & Observations

Time (MST) Temp. Windchill Dew Point Humidity Pressure Visibility Wind Dir Wind Speed Gust Speed Precip Events Conditions
12:51 AM 5.0 °F -13.0 °F -7.1 °F 58% 30.51 in 10.0 mi North 15.0 mph - N/A   Mostly Cloudy
1:51 AM 5.0 °F -10.0 °F -6.0 °F 61% 30.51 in 10.0 mi North 10.4 mph - N/A   Mostly Cloudy
2:51 AM 3.9 °F -12.2 °F -7.1 °F 60% 30.50 in 10.0 mi North 11.5 mph - N/A   Scattered Clouds
3:51 AM 3.0 °F -14.8 °F -8.0 °F 60% 30.49 in 10.0 mi North 13.8 mph - N/A   Partly Cloudy
4:51 AM 3.0 °F -14.1 °F -8.0 °F 60% 30.50 in 10.0 mi North 12.7 mph - N/A   Scattered Clouds
5:51 AM 1.9 °F -15.5 °F -9.0 °F 60% 30.51 in 10.0 mi North 12.7 mph - N/A   Scattered Clouds
6:51 AM 1.9 °F -16.2 °F -9.0 °F 60% 30.53 in 10.0 mi North 13.8 mph - N/A   Scattered Clouds
7:51 AM 1.9 °F -16.9 °F -9.9 °F 58% 30.54 in 10.0 mi North 15.0 mph - N/A   Scattered Clouds
8:51 AM 5.0 °F -13.0 °F -7.1 °F 58% 30.54 in 10.0 mi North 15.0 mph - N/A   Scattered Clouds
9:51 AM 8.1 °F -7.7 °F -7.1 °F 50% 30.54 in 10.0 mi NNE 12.7 mph - N/A   Scattered Clouds
10:51 AM 12.0 °F -2.0 °F -4.0 °F 49% 30.51 in 10.0 mi North 11.5 mph - N/A   Scattered Clouds
11:51 AM 14.0 °F 1.2 °F -2.9 °F 47% 30.48 in 10.0 mi NNW 10.4 mph - N/A   Mostly Cloudy
12:51 PM 16.0 °F 2.9 °F -0.9 °F 47% 30.43 in 10.0 mi North 11.5 mph - N/A   Mostly Cloudy
1:51 PM 16.0 °F 6.3 °F -0.0 °F 49% 30.40 in 10.0 mi NNW 6.9 mph 16.1 mph N/A   Mostly Cloudy
2:51 PM 18.0 °F 5.4 °F 1.0 °F 48% 30.39 in 10.0 mi North 11.5 mph - N/A   Mostly Cloudy
3:51 PM 17.1 °F 3.6 °F 1.0 °F 50% 30.40 in 10.0 mi North 12.7 mph - N/A   Scattered Clouds
4:51 PM 18.0 °F 6.9 °F -0.9 °F 44% 30.41 in 10.0 mi North 9.2 mph - N/A   Scattered Clouds
5:51 PM 16.0 °F 7.4 °F -0.9 °F 47% 30.43 in 10.0 mi North 5.8 mph - N/A   Scattered Clouds
6:51 PM 16.0 °F - -0.9 °F 47% 30.43 in 10.0 mi Calm Calm - N/A   Partly Cloudy
7:51 PM 14.0 °F - -0.9 °F 52% 30.43 in 10.0 mi Calm Calm - N/A   Clear
8:51 PM 14.0 °F 2.9 °F -0.0 °F 54% 30.42 in 10.0 mi SSW 8.1 mph - N/A   Clear
9:51 PM 12.9 °F 3.8 °F -0.0 °F 56% 30.41 in 10.0 mi SW 5.8 mph - N/A   Clear
10:51 PM 12.0 °F 2.7 °F -0.0 °F 59% 30.40 in 10.0 mi SW 5.8 mph - N/A   Clear
11:51 PM 14.0 °F 3.9 °F -0.0 °F 54% 30.38 in 10.0 mi SW 6.9 mph - N/A   Clear